This is the latest recevied weather packets stored in our database for station/object VR2OT-10. If no packets are shown the sender has not sent any weather packets the latest 10 day(s).
| Time | Temp. | Humidity | Pressure | Rain* | Wind** | Luminosity | Snow |
|---|---|---|---|---|---|---|---|
| 1788027032 | 28.33° C | 88% | 999 hPa | - | 0 m/s | - | - |
| 1788026133 | 28.89° C | 87% | 999.7 hPa | - | 1.34 m/s, 270° | - | - |
| 1788025233 | 28.89° C | 87% | 999.9 hPa | - | 1.34 m/s, 270° | - | - |
| 1788024331 | 28.89° C | 84% | 999.8 hPa | - | 0.45 m/s, 225° | - | - |
| 1788023434 | 28.89° C | 85% | 999.8 hPa | - | 0.45 m/s, 225° | - | - |
| 1788022533 | 28.89° C | 84% | 1000 hPa | - | 0.45 m/s, 270° | - | - |
| 1788021631 | 28.89° C | 85% | 1000.1 hPa | - | 0.89 m/s, 270° | - | - |
| 1788020732 | 28.89° C | 85% | 1000.2 hPa | - | 0.89 m/s, 270° | - | - |
| 1788019834 | 29.44° C | 85% | 1000.5 hPa | - | 1.34 m/s, 270° | - | - |
| 1788018932 | 28.89° C | 84% | 1000.7 hPa | - | 1.34 m/s, 270° | - | - |
| 1788018034 | 28.89° C | 85% | 1000.7 hPa | - | 1.79 m/s, 270° | - | - |
| 1788017132 | 29.44° C | 86% | 1000.6 hPa | - | 1.34 m/s, 225° | - | - |
| 1788016231 | 28.89° C | 84% | 1000.7 hPa | - | 0.89 m/s, 270° | - | - |
| 1788015333 | 29.44° C | 82% | 1000.7 hPa | - | 1.34 m/s, 270° | - | - |
| 1788014434 | 28.89° C | 82% | 1000.8 hPa | - | 1.79 m/s, 315° | - | - |
| 1788013531 | 29.44° C | 83% | 1000.8 hPa | - | 0.45 m/s, 315° | - | - |
| 1788012634 | 28.89° C | 79% | 1000.7 hPa | - | - | - | - |
| 1788011733 | 29.44° C | 79% | 1000.6 hPa | - | - | - | - |
| 1788010832 | 29.44° C | 78% | 1000.6 hPa | - | 0 m/s | - | - |
| 1788009933 | 28.89° C | 81% | 1000.6 hPa | - | 1.34 m/s, 270° | - | - |
| 1788009033 | 28.89° C | 80% | 1000.3 hPa | - | 1.34 m/s, 270° | - | - |
| 1788008132 | 29.44° C | 77% | 1000 hPa | - | 1.79 m/s, 270° | - | - |
| 1788007234 | 30° C | 75% | 1000 hPa | - | 1.79 m/s, 225° | - | - |
| 1788006333 | 30° C | 73% | 999.9 hPa | - | 1.34 m/s, 270° | - | - |
| 1788005431 | 29.44° C | 75% | 999.8 hPa | - | 1.34 m/s, 270° | - | - |
* Rain since midnight (hover to see other rain measurements)
** Current wind speed in m/s (hover to see current wind gust speed)